Location: ???? ?????
(30.0052°N, 31.2891°E)
Time: 22:30:28
(UTC+00:00)

MOS 1 Rocket - Pass Details

Date: 26 May 2022
Orbit: 615 x 827 km, 97.5° (Epoch: 05 July)

Event Time Altitude Azimuth Distance (km) Brightness Sun altitude
Exits shadow 00:44:04 26° 313° (NW) 1,206 4.5 -24.2°
Drops below altitude 10° 00:46:16 10° 332° (NNW) 1,977 5.8 -23.9°
Sets 00:48:33 0° 340° (NNW) 2,889 6.8 -23.6°
